| time (UTC) | temp C | wind direction | speed KPH | gust KPH | rain 1hr cm | rain 24hr cm | rain mn cm | humidity % | barometer mb |
| 20260510121902 | 12 | 19 | 3.2 | 11.3 | 0.00 | 0.00 | 0.00 | 48 | 1019.8 |
| 20260510121402 | 11 | 75 | 1.6 | 8.0 | 0.00 | 0.00 | 0.00 | 51 | 1019.9 |
| 20260510120901 | 11 | 19 | 1.6 | 8.0 | 0.00 | 0.00 | 0.00 | 52 | 1020.0 |
| 20260510120401 | 11 | 37 | 3.2 | 4.8 | 0.00 | 0.00 | 0.00 | 54 | 1020.1 |
| 20260510115901 | 11 | 331 | 1.6 | 8.0 | 0.00 | 0.00 | 0.00 | 52 | 1020.1 |
| 20260510115401 | 11 | 1 | 3.2 | 8.0 | 0.00 | 0.00 | 0.00 | 53 | 1020.1 |
| 20260510114901 | 11 | 7 | 4.8 | 9.7 | 0.00 | 0.00 | 0.00 | 54 | 1020.1 |
| 20260510113901 | 12 | 21 | 8.0 | 12.9 | 0.00 | 0.00 | 0.00 | 55 | 1020.3 |
| 20260510113401 | 12 | 118 | 3.2 | 11.3 | 0.00 | 0.00 | 0.00 | 54 | 1020.3 |
| 20260510112902 | 11 | 271 | 3.2 | 12.9 | 0.00 | 0.00 | 0.00 | 57 | 1020.4 |
| 20260510112401 | 11 | 29 | 4.8 | 11.3 | 0.00 | 0.00 | 0.00 | 57 | 1020.4 |
| 20260510111901 | 11 | 30 | 4.8 | 16.1 | 0.00 | 0.00 | 0.00 | 57 | 1020.5 |
| 20260510111401 | 11 | 62 | 3.2 | 16.1 | 0.00 | 0.00 | 0.00 | 58 | 1020.5 |
| 20260510110901 | 11 | 93 | 8.0 | 16.1 | 0.00 | 0.00 | 0.00 | 59 | 1020.6 |
| 20260510110401 | 11 | 79 | 8.0 | 12.9 | 0.00 | 0.00 | 0.00 | 58 | 1020.7 |
| 20260510105901 | 11 | 73 | 3.2 | 12.9 | 0.00 | 0.00 | 0.00 | 57 | 1020.8 |
| 20260510105403 | 10 | 53 | 4.8 | 12.9 | 0.00 | 0.00 | 0.00 | 62 | 1020.8 |
| 20260510104901 | 10 | 165 | 1.6 | 8.0 | 0.00 | 0.00 | 0.00 | 63 | 1020.9 |
| 20260510103400 | 10 | 22 | 3.2 | 11.3 | 0.00 | 0.00 | 0.00 | 64 | 1021.1 |
| 20260510102402 | 9 | 53 | 0.0 | 11.3 | 0.00 | 0.00 | 0.00 | 66 | 1021.2 |
| 20260510101901 | 9 | 7 | 4.8 | 11.3 | 0.00 | 0.00 | 0.00 | 65 | 1021.2 |
| 20260510101401 | 9 | 1 | 3.2 | 12.9 | 0.00 | 0.00 | 0.00 | 65 | 1021.2 |
| 20260510100902 | 9 | 355 | 3.2 | 4.8 | 0.00 | 0.00 | 0.00 | 64 | 1021.2 |
| 20260510100401 | 9 | 307 | 4.8 | 11.3 | 0.00 | 0.03 | 0.00 | 63 | 1021.3 |
| 20260510095902 | 9 | 125 | 1.6 | 11.3 | 0.00 | 0.03 | 0.00 | 67 | 1021.4 |
| 20260510095401 | 9 | 44 | 1.6 | 11.3 | 0.00 | 0.05 | 0.00 | 66 | 1021.4 |
| 20260510094901 | 9 | 37 | 4.8 | 16.1 | 0.00 | 0.05 | 0.00 | 65 | 1021.4 |
| 20260510094402 | 9 | 88 | 3.2 | 9.7 | 0.00 | 0.13 | 0.00 | 65 | 1021.5 |
| 20260510093901 | 10 | 340 | 4.8 | 11.3 | 0.00 | 0.15 | 0.00 | 65 | 1021.6 |
| 20260510093402 | 10 | 52 | 4.8 | 22.5 | 0.00 | 0.15 | 0.00 | 66 | 1021.6 |
| 20260510092901 | 9 | 353 | 6.4 | 19.3 | 0.00 | 0.15 | 0.00 | 65 | 1021.6 |
| 20260510092401 | 9 | 30 | 4.8 | 12.9 | 0.00 | 0.15 | 0.00 | 65 | 1021.7 |
| 20260510091901 | 9 | 55 | 1.6 | 9.7 | 0.00 | 0.15 | 0.00 | 67 | 1021.8 |
| 20260510091401 | 9 | 33 | 3.2 | 12.9 | 0.00 | 0.15 | 0.00 | 68 | 1021.8 |
| 20260510090901 | 9 | 314 | 3.2 | 11.3 | 0.00 | 0.15 | 0.00 | 68 | 1021.9 |
| 20260510085901 | 8 | 24 | 6.4 | 14.5 | 0.00 | 0.15 | 0.00 | 68 | 1021.9 |
| 20260510085401 | 8 | 189 | 3.2 | 14.5 | 0.00 | 0.15 | 0.00 | 69 | 1021.9 |
| 20260510084901 | 8 | 9 | 4.8 | 12.9 | 0.00 | 0.15 | 0.00 | 69 | 1021.9 |
| 20260510083400 | 8 | 74 | 8.0 | 12.9 | 0.00 | 0.15 | 0.00 | 70 | 1022.0 |
| 20260510082901 | 8 | 37 | 4.8 | 12.9 | 0.00 | 0.15 | 0.00 | 71 | 1022.0 |
| 20260510082401 | 8 | 48 | 1.6 | 11.3 | 0.00 | 0.15 | 0.00 | 72 | 1022.1 |
| 20260510081901 | 8 | 81 | 8.0 | 14.5 | 0.00 | 0.15 | 0.00 | 74 | 1022.1 |
| 20260510080901 | 7 | 358 | 4.8 | 12.9 | 0.00 | 0.15 | 0.00 | 73 | 1022.1 |
| 20260510080401 | 7 | 47 | 4.8 | 19.3 | 0.00 | 0.15 | 0.00 | 73 | 1022.1 |
| 20260510075901 | 7 | 10 | 4.8 | 9.7 | 0.00 | 0.15 | 0.00 | 74 | 1022.1 |
| 20260510075401 | 7 | 59 | 4.8 | 11.3 | 0.00 | 0.15 | 0.00 | 74 | 1022.1 |
| 20260510074901 | 7 | 142 | 3.2 | 14.5 | 0.00 | 0.15 | 0.00 | 75 | 1022.0 |
| 20260510074400 | 7 | 55 | 1.6 | 4.8 | 0.00 | 0.15 | 0.00 | 78 | 1022.1 |
| 20260510073902 | 7 | 16 | 3.2 | 9.7 | 0.00 | 0.15 | 0.00 | 77 | 1022.1 |
| 20260510073401 | 7 | 52 | 4.8 | 14.5 | 0.00 | 0.15 | 0.00 | 78 | 1022.1 |
| 20260510072901 | 7 | 327 | 3.2 | 4.8 | 0.00 | 0.15 | 0.00 | 78 | 1022.1 |
| 20260510072401 | 6 | 341 | 3.2 | 19.3 | 0.00 | 0.15 | 0.00 | 78 | 1022.1 |
| 20260510071901 | 6 | 73 | 3.2 | 12.9 | 0.00 | 0.15 | 0.00 | 78 | 1022.0 |
| 20260510071401 | 6 | 238 | 3.2 | 11.3 | 0.00 | 0.15 | 0.00 | 79 | 1022.0 |
| 20260510070901 | 6 | 147 | 4.8 | 9.7 | 0.00 | 0.15 | 0.00 | 79 | 1021.9 |
| 20260510070401 | 6 | 325 | 4.8 | 9.7 | 0.00 | 0.15 | 0.00 | 80 | 1021.8 |
| 20260510065901 | 6 | 175 | 1.6 | 4.8 | 0.00 | 0.15 | 0.00 | 81 | 1021.8 |
| 20260510065401 | 6 | 89 | 3.2 | 14.5 | 0.00 | 0.15 | 0.00 | 81 | 1021.8 |
| 20260510064401 | 6 | 16 | 4.8 | 9.7 | 0.00 | 0.15 | 0.00 | 81 | 1021.7 |
| 20260510063901 | 6 | 190 | 3.2 | 11.3 | 0.00 | 0.15 | 0.00 | 82 | 1021.7 |
| 20260510063400 | 6 | 56 | 3.2 | 11.3 | 0.00 | 0.15 | 0.00 | 82 | 1021.7 |
| 20260510062902 | 5 | 55 | 6.4 | 12.9 | 0.00 | 0.15 | 0.00 | 83 | 1021.6 |
| 20260510061901 | 5 | 347 | 3.2 | 11.3 | 0.00 | 0.15 | 0.00 | 84 | 1021.5 |
| 20260510061401 | 5 | 4 | 4.8 | 11.3 | 0.00 | 0.15 | 0.00 | 84 | 1021.5 |
| 20260510060901 | 5 | 43 | 1.6 | 11.3 | 0.00 | 0.18 | 0.00 | 85 | 1021.4 |
| 20260510060400 | 5 | 18 | 3.2 | 11.3 | 0.00 | 0.18 | 0.00 | 86 | 1021.4 |
| 20260510055901 | 4 | 80 | 3.2 | 9.7 | 0.00 | 0.18 | 0.00 | 88 | 1021.5 |
| 20260510055400 | 4 | 335 | 3.2 | 11.3 | 0.00 | 0.18 | 0.00 | 89 | 1021.6 |
| 20260510054901 | 3 | 86 | 1.6 | 4.8 | 0.00 | 0.18 | 0.00 | 89 | 1021.6 |
| 20260510054401 | 3 | 71 | 1.6 | 4.8 | 0.00 | 0.18 | 0.00 | 89 | 1021.6 |
| 20260510053901 | 3 | 105 | 1.6 | 8.0 | 0.00 | 0.18 | 0.00 | 89 | 1021.7 |
| 20260510052900 | 3 | 236 | 1.6 | 4.8 | 0.00 | 0.18 | 0.00 | 89 | 1021.7 |
| 20260510052400 | 3 | 243 | 1.6 | 8.0 | 0.00 | 0.18 | 0.00 | 89 | 1021.7 |
| 20260510051400 | 3 | 249 | 4.8 | 8.0 | 0.00 | 0.18 | 0.00 | 89 | 1021.7 |
| 20260510050901 | 3 | 270 | 0.0 | 4.8 | 0.00 | 0.18 | 0.00 | 89 | 1021.8 |
| 20260510050402 | 3 | 270 | 1.6 | 3.2 | 0.00 | 0.18 | 0.00 | 89 | 1021.8 |
| 20260510045901 | 3 | 270 | 1.6 | 4.8 | 0.00 | 0.18 | 0.00 | 89 | 1021.9 |
| 20260510045401 | 3 | 270 | 0.0 | 3.2 | 0.00 | 0.18 | 0.00 | 89 | 1021.8 |
| 20260510044902 | 3 | 270 | 1.6 | 4.8 | 0.00 | 0.18 | 0.00 | 88 | 1021.9 |
| 20260510044401 | 3 | 298 | 0.0 | 1.6 | 0.00 | 0.18 | 0.00 | 88 | 1021.9 |
| 20260510043901 | 3 | 342 | 1.6 | 3.2 | 0.00 | 0.18 | 0.00 | 87 | 1021.9 |
| 20260510043401 | 3 | 342 | 0.0 | 3.2 | 0.00 | 0.18 | 0.00 | 87 | 1022.0 |
| 20260510042900 | 3 | 342 | 1.6 | 3.2 | 0.00 | 0.18 | 0.00 | 87 | 1022.0 |
| 20260510042400 | 3 | 347 | 1.6 | 4.8 | 0.00 | 0.18 | 0.00 | 87 | 1022.2 |
| 20260510041901 | 4 | 261 | 1.6 | 4.8 | 0.00 | 0.18 | 0.00 | 88 | 1022.2 |
| 20260510040901 | 4 | 285 | 3.2 | 8.0 | 0.00 | 0.18 | 0.00 | 88 | 1022.2 |
| 20260510040401 | 4 | 175 | 3.2 | 9.7 | 0.00 | 0.18 | 0.00 | 87 | 1022.2 |
| 20260510035901 | 4 | 249 | 0.0 | 4.8 | 0.00 | 0.18 | 0.00 | 87 | 1022.2 |
| 20260510035400 | 4 | 230 | 3.2 | 9.7 | 0.00 | 0.18 | 0.00 | 87 | 1022.2 |
| 20260510034901 | 4 | 150 | 1.6 | 4.8 | 0.00 | 0.18 | 0.00 | 87 | 1022.2 |
| 20260510034401 | 4 | 122 | 1.6 | 8.0 | 0.00 | 0.18 | 0.00 | 87 | 1022.2 |
| 20260510033400 | 4 | 317 | 3.2 | 4.8 | 0.00 | 0.18 | 0.00 | 87 | 1022.3 |
| 20260510032900 | 5 | 263 | 1.6 | 4.8 | 0.00 | 0.18 | 0.00 | 86 | 1022.3 |
| 20260510032401 | 5 | 201 | 1.6 | 4.8 | 0.00 | 0.18 | 0.00 | 86 | 1022.3 |
| 20260510031901 | 5 | 133 | 1.6 | 4.8 | 0.00 | 0.18 | 0.00 | 86 | 1022.4 |
| 20260510030400 | 5 | 32 | 3.2 | 11.3 | 0.00 | 0.18 | 0.00 | 86 | 1022.2 |
| 20260510025901 | 5 | 94 | 3.2 | 11.3 | 0.00 | 0.18 | 0.00 | 86 | 1022.1 |
| 20260510025401 | 5 | 145 | 3.2 | 12.9 | 0.00 | 0.18 | 0.00 | 86 | 1022.0 |
| 20260510023901 | 5 | 320 | 4.8 | 19.3 | 0.00 | 0.18 | 0.00 | 87 | 1021.7 |
| 20260510023401 | 5 | 21 | 4.8 | 19.3 | 0.00 | 0.18 | 0.00 | 87 | 1021.6 |
| 20260510022400 | 5 | 350 | 8.0 | 22.5 | 0.00 | 0.18 | 0.00 | 86 | 1021.6 |
| 20260510021901 | 5 | 3 | 4.8 | 20.9 | 0.00 | 0.18 | 0.00 | 87 | 1021.5 |
| 20260510021400 | 5 | 15 | 8.0 | 16.1 | 0.00 | 0.18 | 0.00 | 87 | 1021.5 |
| 20260510015901 | 5 | 357 | 4.8 | 16.1 | 0.00 | 0.18 | 0.00 | 87 | 1021.6 |
| 20260510015400 | 5 | 17 | 6.4 | 19.3 | 0.00 | 0.18 | 0.00 | 87 | 1021.6 |
| 20260510014901 | 5 | 158 | 6.4 | 14.5 | 0.00 | 0.18 | 0.00 | 87 | 1021.6 |
| 20260510014400 | 5 | 48 | 4.8 | 20.9 | 0.00 | 0.18 | 0.00 | 87 | 1021.6 |
| 20260510013901 | 5 | 15 | 8.0 | 19.3 | 0.00 | 0.18 | 0.00 | 87 | 1021.5 |
| 20260510012401 | 5 | 39 | 8.0 | 16.1 | 0.00 | 0.18 | 0.00 | 88 | 1021.5 |
| 20260510011401 | 5 | 22 | 9.7 | 20.9 | 0.00 | 0.18 | 0.00 | 88 | 1021.4 |
| 20260510010901 | 5 | 0 | 9.7 | 25.7 | 0.00 | 0.18 | 0.00 | 88 | 1021.5 |
| 20260510010400 | 5 | 342 | 8.0 | 16.1 | 0.00 | 0.18 | 0.00 | 88 | 1021.5 |
| 20260510005900 | 5 | 28 | 9.7 | 19.3 | 0.00 | 0.18 | 0.00 | 88 | 1021.5 |
| 20260510005400 | 6 | 1 | 9.7 | 41.8 | 0.00 | 0.18 | 0.00 | 87 | 1021.5 |
| 20260510004401 | 6 | 355 | 8.0 | 19.3 | 0.00 | 0.18 | 0.00 | 87 | 1021.6 |
| 20260510003401 | 6 | 6 | 9.7 | 22.5 | 0.00 | 0.18 | 0.00 | 87 | 1021.7 |
| 20260510002900 | 6 | 8 | 8.0 | 12.9 | 0.00 | 0.18 | 0.00 | 86 | 1021.8 |
| 20260510002401 | 6 | 20 | 8.0 | 20.9 | 0.00 | 0.18 | 0.00 | 87 | 1021.9 |
| 20260510001900 | 6 | 20 | 8.0 | 37.0 | 0.00 | 0.18 | 0.00 | 86 | 1021.9 |
| 20260510001400 | 6 | 18 | 9.7 | 20.9 | 0.00 | 0.18 | 0.00 | 86 | 1021.9 |
| 20260510000901 | 6 | 2 | 9.7 | 24.1 | 0.00 | 0.18 | 0.00 | 86 | 1021.8 |
| 20260510000400 | 6 | 23 | 8.0 | 22.5 | 0.00 | 0.18 | 0.00 | 86 | 1021.8 |
| 20260509235901 | 6 | 25 | 9.7 | 19.3 | 0.00 | 0.18 | 0.00 | 86 | 1021.7 |
| 20260509235400 | 6 | 337 | 4.8 | 20.9 | 0.00 | 0.18 | 0.00 | 86 | 1021.7 |
| 20260509234901 | 6 | 3 | 8.0 | 24.1 | 0.00 | 0.18 | 0.00 | 86 | 1021.7 |
| 20260509234400 | 6 | 19 | 9.7 | 20.9 | 0.00 | 0.18 | 0.00 | 86 | 1021.7 |
| 20260509233901 | 6 | 14 | 8.0 | 19.3 | 0.00 | 0.18 | 0.00 | 86 | 1021.7 |
| 20260509233400 | 6 | 8 | 9.7 | 27.4 | 0.00 | 0.18 | 0.00 | 85 | 1021.8 |
| 20260509232900 | 6 | 6 | 9.7 | 27.4 | 0.00 | 0.18 | 0.00 | 85 | 1021.8 |
| 20260509232400 | 6 | 24 | 9.7 | 24.1 | 0.00 | 0.18 | 0.00 | 85 | 1021.8 |
| 20260509231900 | 6 | 1 | 9.7 | 19.3 | 0.00 | 0.18 | 0.00 | 85 | 1021.8 |
| 20260509231400 | 6 | 27 | 9.7 | 20.9 | 0.00 | 0.18 | 0.00 | 85 | 1021.8 |
| 20260509230946 | 6 | 19 | 9.7 | 20.9 | 0.00 | 0.18 | 0.00 | 85 | 1021.7 |
| 20260509230400 | 6 | 355 | 9.7 | 29.0 | 0.00 | 0.18 | 0.00 | 85 | 1021.7 |
| 20260509225901 | 6 | 22 | 9.7 | 24.1 | 0.00 | 0.18 | 0.18 | 85 | 1021.6 |
| 20260509225400 | 6 | 0 | 8.0 | 20.9 | 0.00 | 0.18 | 0.18 | 86 | 1021.7 |
| 20260509224901 | 6 | 16 | 11.3 | 20.9 | 0.00 | 0.18 | 0.18 | 86 | 1021.7 |
| 20260509224400 | 6 | 4 | 11.3 | 22.5 | 0.00 | 0.18 | 0.18 | 86 | 1021.6 |
| 20260509223901 | 6 | 27 | 12.9 | 22.5 | 0.00 | 0.18 | 0.18 | 86 | 1021.6 |
| 20260509223400 | 6 | 0 | 11.3 | 20.9 | 0.00 | 0.18 | 0.18 | 86 | 1021.6 |
| 20260509222400 | 6 | 18 | 12.9 | 22.5 | 0.00 | 0.18 | 0.18 | 87 | 1021.6 |
| 20260509221901 | 6 | 1 | 9.7 | 25.7 | 0.00 | 0.18 | 0.18 | 87 | 1021.6 |
| 20260509221400 | 6 | 15 | 14.5 | 25.7 | 0.00 | 0.18 | 0.18 | 87 | 1021.6 |
| 20260509220401 | 6 | 345 | 8.0 | 19.3 | 0.00 | 0.18 | 0.18 | 86 | 1021.7 |
| 20260509215901 | 6 | 13 | 12.9 | 29.0 | 0.00 | 0.18 | 0.18 | 86 | 1021.8 |
| 20260509214901 | 6 | 10 | 9.7 | 19.3 | 0.00 | 0.18 | 0.18 | 86 | 1021.7 |
| 20260509214400 | 6 | 8 | 9.7 | 22.5 | 0.00 | 0.18 | 0.18 | 86 | 1021.8 |
| 20260509213901 | 6 | 14 | 12.9 | 27.4 | 0.00 | 0.18 | 0.18 | 86 | 1021.9 |
| 20260509213400 | 6 | 10 | 9.7 | 27.4 | 0.00 | 0.18 | 0.18 | 86 | 1021.8 |
| 20260509212401 | 6 | 23 | 9.7 | 19.3 | 0.00 | 0.18 | 0.18 | 86 | 1021.7 |
| 20260509211900 | 6 | 8 | 8.0 | 16.1 | 0.00 | 0.18 | 0.18 | 86 | 1021.7 |
| 20260509211400 | 6 | 0 | 9.7 | 19.3 | 0.00 | 0.18 | 0.18 | 85 | 1021.8 |
| 20260509210900 | 6 | 19 | 9.7 | 20.9 | 0.00 | 0.18 | 0.18 | 86 | 1021.8 |
| 20260509210400 | 6 | 358 | 11.3 | 25.7 | 0.00 | 0.18 | 0.18 | 86 | 1021.7 |
| 20260509205901 | 6 | 358 | 8.0 | 22.5 | 0.00 | 0.18 | 0.18 | 86 | 1021.7 |
| 20260509205400 | 6 | 24 | 9.7 | 25.7 | 0.00 | 0.18 | 0.18 | 85 | 1021.7 |
| 20260509204901 | 6 | 10 | 11.3 | 22.5 | 0.00 | 0.18 | 0.18 | 85 | 1021.7 |
| 20260509204400 | 6 | 7 | 9.7 | 22.5 | 0.00 | 0.18 | 0.18 | 85 | 1021.6 |
| 20260509203901 | 6 | 13 | 9.7 | 19.3 | 0.00 | 0.18 | 0.18 | 86 | 1021.7 |
| 20260509203401 | 6 | 19 | 8.0 | 19.3 | 0.00 | 0.18 | 0.18 | 86 | 1021.7 |
| 20260509202900 | 6 | 5 | 11.3 | 27.4 | 0.00 | 0.18 | 0.18 | 85 | 1021.6 |
| 20260509202400 | 6 | 3 | 12.9 | 24.1 | 0.00 | 0.18 | 0.18 | 86 | 1021.5 |
| 20260509201901 | 6 | 4 | 11.3 | 22.5 | 0.00 | 0.18 | 0.18 | 86 | 1021.4 |
| 20260509201400 | 6 | 6 | 14.5 | 25.7 | 0.00 | 0.18 | 0.18 | 86 | 1021.4 |
| 20260509200400 | 6 | 15 | 11.3 | 29.0 | 0.00 | 0.18 | 0.18 | 85 | 1021.4 |
| 20260509195900 | 6 | 21 | 12.9 | 22.5 | 0.00 | 0.18 | 0.18 | 85 | 1021.3 |
| 20260509195359 | 6 | 11 | 9.7 | 32.2 | 0.00 | 0.18 | 0.18 | 85 | 1021.2 |
| 20260509194401 | 6 | 20 | 11.3 | 32.2 | 0.00 | 0.18 | 0.18 | 85 | 1021.2 |
| 20260509193901 | 6 | 5 | 14.5 | 32.2 | 0.00 | 0.18 | 0.18 | 85 | 1021.1 |
| 20260509193400 | 6 | 4 | 14.5 | 32.2 | 0.00 | 0.18 | 0.18 | 85 | 1021.1 |
| 20260509192900 | 6 | 4 | 11.3 | 25.7 | 0.00 | 0.18 | 0.18 | 85 | 1021.0 |
| 20260509192400 | 6 | 1 | 14.5 | 29.0 | 0.00 | 0.18 | 0.18 | 86 | 1021.0 |
| 20260509191901 | 6 | 350 | 16.1 | 27.4 | 0.00 | 0.18 | 0.18 | 86 | 1020.9 |
| 20260509191400 | 6 | 355 | 12.9 | 32.2 | 0.00 | 0.18 | 0.18 | 86 | 1020.7 |
| 20260509190900 | 6 | 3 | 16.1 | 25.7 | 0.00 | 0.18 | 0.18 | 86 | 1020.8 |
| 20260509190400 | 6 | 25 | 12.9 | 25.7 | 0.00 | 0.18 | 0.18 | 87 | 1020.8 |
| 20260509185900 | 6 | 3 | 14.5 | 20.9 | 0.00 | 0.18 | 0.18 | 87 | 1020.8 |
| 20260509185400 | 6 | 14 | 14.5 | 27.4 | 0.00 | 0.18 | 0.18 | 87 | 1020.8 |
| 20260509184900 | 6 | 7 | 11.3 | 37.0 | 0.00 | 0.18 | 0.18 | 87 | 1020.8 |
| 20260509184400 | 6 | 11 | 11.3 | 29.0 | 0.00 | 0.18 | 0.18 | 87 | 1020.9 |
| 20260509183900 | 6 | 22 | 14.5 | 25.7 | 0.00 | 0.18 | 0.18 | 88 | 1021.0 |
| 20260509183400 | 6 | 25 | 14.5 | 25.7 | 0.00 | 0.18 | 0.18 | 87 | 1021.0 |
| 20260509182900 | 6 | 14 | 14.5 | 24.1 | 0.00 | 0.18 | 0.18 | 87 | 1020.8 |
| 20260509182400 | 6 | 1 | 11.3 | 29.0 | 0.00 | 0.18 | 0.18 | 87 | 1020.9 |
| 20260509181900 | 6 | 16 | 16.1 | 29.0 | 0.00 | 0.18 | 0.18 | 87 | 1020.9 |
| 20260509181400 | 6 | 8 | 12.9 | 27.4 | 0.00 | 0.18 | 0.18 | 87 | 1020.9 |
| 20260509175900 | 7 | 13 | 14.5 | 32.2 | 0.00 | 0.18 | 0.18 | 87 | 1020.9 |
| 20260509175400 | 7 | 359 | 8.0 | 19.3 | 0.00 | 0.18 | 0.18 | 87 | 1020.9 |
| 20260509174901 | 7 | 5 | 9.7 | 24.1 | 0.00 | 0.18 | 0.18 | 87 | 1020.9 |
| 20260509174400 | 7 | 348 | 11.3 | 24.1 | 0.00 | 0.18 | 0.18 | 87 | 1020.8 |
| 20260509173901 | 7 | 23 | 14.5 | 24.1 | 0.00 | 0.18 | 0.18 | 87 | 1020.5 |
| 20260509173400 | 7 | 7 | 11.3 | 19.3 | 0.00 | 0.18 | 0.18 | 88 | 1020.5 |
| 20260509172900 | 7 | 5 | 11.3 | 24.1 | 0.00 | 0.18 | 0.18 | 88 | 1020.3 |
| 20260509172401 | 7 | 7 | 12.9 | 22.5 | 0.00 | 0.18 | 0.18 | 88 | 1020.4 |
| 20260509171900 | 7 | 6 | 12.9 | 22.5 | 0.00 | 0.18 | 0.18 | 87 | 1020.3 |
| 20260509171400 | 7 | 8 | 14.5 | 32.2 | 0.00 | 0.18 | 0.18 | 87 | 1020.4 |
| 20260509170900 | 7 | 4 | 9.7 | 20.9 | 0.00 | 0.18 | 0.18 | 87 | 1020.4 |
| 20260509170400 | 7 | 352 | 11.3 | 24.1 | 0.00 | 0.18 | 0.18 | 88 | 1020.5 |
| 20260509165900 | 7 | 349 | 8.0 | 19.3 | 0.00 | 0.18 | 0.18 | 87 | 1020.5 |
| 20260509165359 | 7 | 10 | 14.5 | 25.7 | 0.00 | 0.18 | 0.18 | 87 | 1020.4 |
| 20260509164900 | 7 | 357 | 11.3 | 24.1 | 0.00 | 0.18 | 0.18 | 87 | 1020.4 |
| 20260509164400 | 7 | 5 | 11.3 | 20.9 | 0.00 | 0.18 | 0.18 | 87 | 1020.3 |
| 20260509163900 | 7 | 0 | 14.5 | 25.7 | 0.00 | 0.18 | 0.18 | 87 | 1020.2 |
| 20260509163400 | 7 | 1 | 9.7 | 25.7 | 0.00 | 0.18 | 0.18 | 87 | 1020.3 |
| 20260509162901 | 7 | 20 | 9.7 | 20.9 | 0.00 | 0.18 | 0.18 | 87 | 1020.1 |
| 20260509161900 | 8 | 16 | 9.7 | 24.1 | 0.00 | 0.18 | 0.18 | 88 | 1020.2 |
| 20260509160900 | 8 | 5 | 14.5 | 22.5 | 0.00 | 0.18 | 0.18 | 87 | 1020.1 |
| 20260509160400 | 8 | 11 | 11.3 | 27.4 | 0.00 | 0.18 | 0.18 | 87 | 1019.8 |
| 20260509155359 | 8 | 21 | 11.3 | 24.1 | 0.00 | 0.18 | 0.18 | 87 | 1020.0 |
| 20260509154900 | 8 | 13 | 11.3 | 29.0 | 0.00 | 0.18 | 0.18 | 87 | 1019.8 |
| 20260509154401 | 8 | 12 | 12.9 | 25.7 | 0.00 | 0.18 | 0.18 | 88 | 1019.8 |
| 20260509153900 | 8 | 356 | 11.3 | 25.7 | 0.00 | 0.18 | 0.18 | 87 | 1019.9 |
| 20260509153400 | 8 | 14 | 11.3 | 25.7 | 0.00 | 0.18 | 0.18 | 87 | 1019.8 |
| 20260509152900 | 8 | 13 | 11.3 | 22.5 | 0.00 | 0.18 | 0.18 | 88 | 1019.8 |
| 20260509152401 | 8 | 18 | 6.4 | 16.1 | 0.00 | 0.18 | 0.18 | 87 | 1019.8 |
| 20260509151900 | 8 | 8 | 9.7 | 19.3 | 0.00 | 0.18 | 0.18 | 87 | 1019.8 |
| 20260509151400 | 9 | 6 | 9.7 | 19.3 | 0.00 | 0.18 | 0.18 | 87 | 1019.8 |
| 20260509150900 | 9 | 15 | 8.0 | 16.1 | 0.00 | 0.18 | 0.18 | 87 | 1019.9 |
| 20260509150400 | 9 | 358 | 9.7 | 20.9 | 0.00 | 0.18 | 0.18 | 87 | 1019.9 |
| 20260509145900 | 9 | 13 | 11.3 | 19.3 | 0.00 | 0.23 | 0.18 | 87 | 1019.9 |
| 20260509145400 | 9 | 14 | 9.7 | 19.3 | 0.00 | 0.30 | 0.18 | 87 | 1019.9 |
| 20260509143900 | 10 | 1 | 4.8 | 20.9 | 0.00 | 0.30 | 0.18 | 87 | 1019.9 |
| 20260509143400 | 10 | 5 | 8.0 | 20.9 | 0.00 | 0.30 | 0.18 | 87 | 1019.8 |
| 20260509142900 | 10 | 351 | 8.0 | 20.9 | 0.00 | 0.30 | 0.18 | 87 | 1019.7 |
| 20260509142401 | 10 | 8 | 9.7 | 16.1 | 0.00 | 0.30 | 0.18 | 86 | 1019.7 |
| 20260509141900 | 10 | 21 | 11.3 | 24.1 | 0.00 | 0.30 | 0.18 | 86 | 1019.7 |
| 20260509141400 | 10 | 6 | 8.0 | 14.5 | 0.00 | 0.30 | 0.18 | 87 | 1019.7 |
| 20260509140900 | 10 | 13 | 8.0 | 19.3 | 0.00 | 0.30 | 0.18 | 86 | 1019.7 |
| 20260509140400 | 10 | 16 | 9.7 | 19.3 | 0.00 | 0.30 | 0.18 | 86 | 1019.7 |
| 20260509135900 | 10 | 14 | 4.8 | 20.9 | 0.00 | 0.30 | 0.18 | 86 | 1019.8 |
| 20260509135400 | 10 | 353 | 8.0 | 16.1 | 0.00 | 0.30 | 0.18 | 85 | 1019.8 |
| 20260509134900 | 10 | 3 | 4.8 | 16.1 | 0.00 | 0.30 | 0.18 | 85 | 1019.7 |
| 20260509134359 | 10 | 349 | 6.4 | 16.1 | 0.00 | 0.30 | 0.18 | 85 | 1019.7 |
| 20260509133900 | 10 | 4 | 9.7 | 19.3 | 0.00 | 0.30 | 0.18 | 85 | 1019.7 |
| 20260509133400 | 10 | 9 | 4.8 | 19.3 | 0.00 | 0.30 | 0.18 | 85 | 1019.8 |
| 20260509132900 | 11 | 351 | 6.4 | 19.3 | 0.00 | 0.30 | 0.18 | 86 | 1019.8 |
| 20260509132401 | 11 | 356 | 8.0 | 14.5 | 0.00 | 0.30 | 0.18 | 86 | 1019.7 |
| 20260509131902 | 11 | 357 | 9.7 | 19.3 | 0.00 | 0.30 | 0.18 | 85 | 1019.7 |
| 20260509131401 | 11 | 17 | 11.3 | 19.3 | 0.00 | 0.30 | 0.18 | 86 | 1019.7 |
| 20260509130400 | 11 | 358 | 3.2 | 14.5 | 0.00 | 0.30 | 0.18 | 88 | 1019.7 |
| 20260509125900 | 10 | 347 | 3.2 | 11.3 | 0.00 | 0.30 | 0.18 | 88 | 1019.7 |
| 20260509125359 | 10 | 17 | 8.0 | 20.9 | 0.00 | 0.30 | 0.18 | 87 | 1019.8 |
| 20260509124900 | 10 | 17 | 4.8 | 16.1 | 0.00 | 0.30 | 0.18 | 89 | 1019.8 |
| 20260509122400 | 11 | 5 | 3.2 | 9.7 | 0.00 | 0.30 | 0.18 | 88 | 1019.8 |